Temp
20 20 20 24 25 26 28 28 27 29 29 27 29 30 32 33 32 32 34 35 35 34 35 34 32 31 30 30 29 27 26 24 23 23 23 23 23 23 23 23 22 22 21 20
21 20 23 23 24 24 25 26 26 27 27 25 28 29 31 31 32 32 32 33 33 33 34 34 32 31 31 30 30 28 27 25 23 24 24 24 24 24 23 23 23 21 21 20
21 22 23 23 22 22 23 24 25 26 26 26 26 27 28 30 30 31 32 32 33 33 33 33 33 31 30 29 29 29 28 26 24 24 24 24 24 23 23 23 22 21 21 20
20 23 23 23 22 22 21 24 24 24 24 24 28 26 30 31 30 30 31 32 31 32 33 33 34 33 32 30 28 28 29 28 25 24 25 24 24 24 24 23 23 22 21 20
19 20 21 22 22 23 22 23 23 23 23 23 25 24 28 30 30 31 31 31 32 32 32 33 34 33 33 32 29 25 27 28 27 24 24 24 24 25 26 24 24 22 22 20
19 21 20 21 22 22 23 22 22 22 22 21 24 25 26 29 30 30 30 30 31 31 31 32 32 32 33 32 29 25 25 26 27 25 23 24 24 24 26 25 24 23 22 21
18 18 20 19 20 22 22 22 20 20 20 21 25 24 25 29 30 30 30 30 31 31 31 32 32 33 32 30 28 24 24 25 26 25 24 23 23 23 24 25 24 24 22 21
18 18 20 20 20 21 21 22 21 20 22 23 24 23 26 28 29 29 29 29 30 30 30 30 30 31 30 29 27 24 24 25 25 25 24 23 23 23 24 24 25 23 23 22
17 18 21 21 21 21 21 21 23 21 23 23 24 25 27 27 28 28 28 29 29 30 30 31 30 30 28 29 27 26 25 25 25 25 24 23 23 23 24 24 23 24 23 22
17 16 19 20 21 21 21 23 20 21 19 19 22 24 25 26 27 27 28 28 29 30 31 30 30 29 28 28 27 25 24 25 26 25 24 24 23 23 23 23 23 23 23 22
15 16 17 19 19 20 20 20 21 22 21 20 21 23 26 26 27 26 27 27 27 28 28 28 29 28 28 27 26 25 23 23 23 23 24 24 23 23 22 23 23 22 22 22
10 14 15 17 20 20 20 17 20 20 20 21 22 22 27 26 26 27 27 27 28 27 27 28 28 28 27 28 27 26 24 23 22 22 23 23 23 23 22 22 22 22 22 22
10 10 12 16 17 18 17 19 16 18 19 19 20 21 25 25 25 26 25 26 26 27 27 26 27 27 27 27 26 25 24 23 22 22 22 22 22 22 22 22 22 22 22 22
11 12 12 12 12 15 15 17 19 16 13 15 18 21 23 24 24 25 25 25 25 26 26 25 26 25 25 25 25 24 23 22 21 21 22 22 22 22 22 22 22 22 21 21
12 10 12 13 15 16 16 15 15 15 14 12 15 15 18 20 21 22 24 24 23 23 23 24 24 25 25 24 24 24 24 22 20 20 21 21 21 21 21 21 21 21 20 20
13 11 12 10 14 14 13 15 15 15 16 17 17 16 18 19 20 21 21 21 22 23 23 23 23 24 24 23 23 22 23 22 20 19 20 20 19 20 20 19 20 18 17 17
8 12 12 11 14 14 12 13 16 17 17 17 16 18 20 20 21 21 21 22 22 22 22 23 23 23 23 23 21 21 21 21 20 19 19 19 18 17 17 18 17 16 16 16
10 10 10 10 12 10 15 18 18 18 18 19 18 19 20 21 21 22 22 21 21 21 22 22 23 22 21 20 20 20 20 21 20 20 19 18 18 18 17 16 16 15 15 15
11 11 9 9 11 14 15 17 17 17 17 19 19 19 20 20 21 21 22 21 21 21 21 21 21 20 19 19 19 19 19 20 20 20 19 19 17 17 16 16 15 14 14 14
12 11 9 10 9 11 15 18 18 18 15 18 19 19 19 19 18 20 21 21 20 20 20 20 20 20 19 20 19 19 18 18 20 20 19 19 18 16 15 15 14 14 13 13
10 9 9 10 10 12 16 17 17 13 15 19 18 18 18 18 19 19 19 19 19 20 20 20 20 20 19 19 19 19 19 19 18 17 17 17 17 16 15 15 13 12 12 11
11 10 10 10 10 10 14 16 13 13 11 13 15 16 16 17 17 17 18 18 19 19 20 19 20 20 20 19 18 19 19 19 18 18 16 16 16 15 14 13 12 11 10 9
9 11 10 11 12 15 14 13 14 14 14 13 13 13 13 14 14 16 17 17 18 18 19 19 19 20 19 19 18 18 18 18 17 17 17 16 15 14 13 12 10 9 8 7
9 9 9 10 12 14 14 14 13 12 12 12 12 12 13 13 13 14 15 16 16 18 19 19 19 19 19 19 18 18 18 17 17 17 16 16 14 12 12 11 10 9 8 7
9 10 10 11 12 13 13 13 12 11 11 11 11 11 11 11 11 13 14 14 15 16 17 17 18 18 18 18 18 18 17 17 16 16 16 15 12 11 10 10 9 9 8 8
10 10 10 10 11 11 11 11 10 10 10 10 9 9 9 9 9 10 11 13 13 14 15 16 17 17 17 17 17 17 17 16 14 14 14 10 10 9 9 7 7 7 7 7
Height
767 772 764 745 746 742 737 737 746 735 736 749 742 735 727 722 725 728 722 718 719 723 725 729 735 741 745 748 752 756 761 765 772 776 780 783 783 787 791 794 798 801 803 806
757 757 741 750 748 749 748 744 749 741 743 754 738 731 724 725 721 721 723 722 723 722 723 726 732 735 738 740 744 748 751 757 760 764 768 772 776 779 783 787 789 792 795 798
745 735 744 745 751 755 751 750 748 747 745 744 746 740 731 723 721 716 715 718 716 716 719 720 726 729 732 735 736 739 743 746 750 754 761 767 772 775 776 777 779 780 784 788
747 735 733 739 744 751 757 747 751 752 755 759 735 742 713 706 713 713 709 710 713 715 714 714 715 719 723 726 727 731 734 737 742 748 751 754 756 758 759 764 768 773 777 779
745 743 740 736 734 739 743 747 748 754 756 757 748 751 709 705 707 703 705 703 702 704 708 706 706 709 712 715 719 720 724 728 733 738 741 744 747 747 751 756 760 763 767 771
743 735 742 734 734 736 738 746 751 755 754 762 740 744 707 705 698 700 700 700 698 698 699 699 700 702 702 706 710 713 715 717 723 727 730 733 735 737 742 745 748 753 758 762
747 743 737 742 742 733 741 744 756 761 763 741 726 737 709 687 689 692 694 694 693 693 693 692 690 691 694 699 702 706 707 708 713 717 720 723 724 728 733 737 740 744 748 752
739 741 733 730 736 730 733 734 737 749 735 722 719 727 696 692 688 690 693 694 691 688 690 691 688 689 690 693 696 699 701 702 705 708 710 712 716 721 724 728 732 735 739 743
737 733 718 722 724 730 729 732 719 729 716 718 713 699 691 689 690 687 689 688 685 681 683 682 683 685 688 689 690 693 695 696 698 700 701 704 707 711 713 717 722 727 731 735
744 746 727 720 721 719 724 712 730 725 737 732 714 706 696 689 688 684 683 683 679 676 675 678 680 682 683 684 685 686 688 688 689 691 692 694 697 701 705 710 713 718 722 728
754 747 733 724 725 719 720 723 716 710 715 723 718 699 680 682 681 687 680 680 681 680 679 678 677 680 680 681 682 681 680 680 680 682 683 684 687 691 697 701 705 709 714 719
776 753 740 729 717 713 712 728 713 716 716 702 699 695 673 676 675 679 682 678 678 681 680 678 676 678 678 675 676 676 676 676 675 675 676 677 680 684 689 693 696 701 706 711
777 772 759 724 725 724 726 717 732 723 712 710 704 698 681 680 678 679 682 682 678 677 675 679 675 675 675 672 672 672 671 670 670 669 669 670 672 675 678 684 689 693 698 703
774 761 758 754 751 738 738 722 714 727 739 725 709 698 684 682 679 677 676 676 676 672 676 677 674 673 673 672 670 669 667 665 665 665 663 662 665 669 673 677 682 686 691 696
765 764 753 746 737 729 730 733 729 727 731 740 726 727 706 697 690 683 675 675 678 681 678 674 674 672 671 670 667 665 664 663 663 661 662 660 661 664 669 671 675 680 684 689
753 755 749 753 736 732 733 726 729 723 715 713 710 712 703 690 689 683 680 682 678 674 673 672 670 669 668 667 666 663 662 660 660 658 660 660 660 662 664 669 672 675 679 683
777 751 744 741 728 726 734 723 712 707 704 704 704 693 684 680 677 674 673 671 669 670 668 665 664 666 665 664 664 662 659 657 657 656 656 657 659 661 662 665 669 670 674 677
760 757 758 742 735 742 705 695 690 690 686 684 687 684 679 674 668 667 665 667 668 664 663 660 657 658 661 662 661 660 657 654 653 652 652 652 655 656 661 663 667 667 669 673
748 751 757 749 727 712 702 692 691 689 682 677 679 676 669 667 662 658 661 663 663 664 660 658 657 657 659 659 658 656 654 650 648 646 646 648 650 653 655 658 662 666 670 671
731 742 755 742 741 719 690 678 679 681 688 673 673 671 668 667 670 660 656 655 658 659 657 655 657 655 655 654 653 652 651 648 643 642 642 643 645 647 650 654 657 660 668 670
735 742 741 727 728 704 685 682 683 697 683 666 669 669 667 666 661 657 656 657 657 655 654 651 650 648 648 648 648 645 644 642 643 642 639 638 639 640 644 649 652 656 661 668
725 730 720 719 717 711 691 680 693 695 695 689 682 677 672 667 661 658 651 653 651 648 645 647 644 639 639 642 642 640 637 638 638 637 635 634 634 636 639 642 646 650 654 661
733 718 717 713 694 685 689 697 697 690 687 690 687 686 683 674 666 658 646 645 645 643 640 637 636 631 631 633 634 633 633 634 633 632 630 629 630 629 633 636 640 647 651 658
725 727 724 717 694 690 692 691 691 695 695 694 688 682 679 672 665 656 646 639 639 635 632 630 628 624 622 625 627 627 627 628 627 626 624 623 624 625 627 632 635 640 645 651
728 719 711 699 692 692 689 690 692 696 694 691 684 681 677 673 659 653 642 632 629 628 625 621 618 617 615 617 618 619 620 621 621 619 618 616 620 622 624 629 630 631 636 639
721 710 705 696 695 694 692 693 697 693 689 689 682 674 669 669 657 650 640 627 622 620 616 615 611 608 609 609 608 610 612 614 615 613 613 614 614 619 620 623 627 632 634 639
Wind_Speed
20 15 21 29 26 24 24 17 21 18 18 9 17 22 21 21 16 17 19 18 19 19 18 22 23 26 26 28 29 31 31 31 31 31 31 31 33 31 30 31 30 29 30 30
17 26 30 22 22 24 23 22 19 10 8 9 17 22 19 19 21 18 18 19 20 18 17 16 18 22 25 30 32 32 34 33 35 34 34 32 30 29 29 28 30 32 32 32
28 25 24 25 22 22 22 25 21 17 11 12 11 21 21 22 22 23 21 20 20 20 20 19 19 21 24 27 31 35 35 36 37 37 31 27 24 25 26 30 32 35 35 35
18 27 24 28 24 22 23 22 19 19 17 17 17 20 24 21 25 23 25 24 22 23 23 21 21 24 26 28 31 33 37 38 36 34 31 33 33 29 33 31 31 30 33 35
15 15 23 27 24 24 24 18 17 16 16 16 20 11 25 19 22 22 21 22 21 20 22 24 25 30 31 30 28 28 34 36 36 34 36 34 33 33 29 27 25 29 29 33
17 5 5 17 22 21 15 17 17 14 13 17 24 19 25 21 23 17 15 16 17 18 21 21 25 27 28 22 21 22 29 33 36 36 37 37 36 36 29 30 27 26 27 28
25 22 16 8 8 20 20 16 13 14 12 21 20 18 27 5 7 8 10 14 16 16 16 16 17 17 23 21 20 20 23 27 33 37 36 39 40 36 33 31 28 25 26 27
16 17 24 18 22 15 27 25 14 19 17 22 21 15 21 17 27 28 23 18 21 17 12 12 16 15 16 16 17 20 21 25 27 33 36 37 36 33 34 32 30 28 26 26
7 11 9 10 20 22 19 21 28 27 23 14 11 17 27 24 22 21 20 17 15 13 17 17 11 10 14 14 14 17 19 23 26 31 34 33 34 35 34 33 31 27 26 24
9 15 15 9 10 19 23 15 18 16 25 28 21 22 14 13 12 18 17 16 19 20 17 12 10 8 12 10 11 11 17 23 26 29 31 32 34 34 34 31 31 30 26 26
10 12 9 12 14 16 14 18 18 16 19 20 21 21 24 26 19 9 7 3 9 8 9 7 7 8 6 11 14 14 13 17 21 25 29 31 31 32 32 33 31 30 27 27
9 6 14 21 15 13 15 8 19 16 22 17 21 20 16 11 15 21 23 25 19 9 10 9 10 10 14 10 10 11 13 15 19 23 26 29 29 29 32 34 32 30 29 27
3 2 7 10 14 15 17 17 9 16 19 25 19 17 19 25 26 23 22 21 19 18 15 11 8 7 9 11 13 14 14 14 16 20 23 26 28 30 32 33 31 30 29 28
7 7 9 9 14 12 11 15 18 10 4 11 22 27 26 24 25 23 16 17 20 21 12 10 7 5 7 10 12 13 14 13 14 18 21 24 27 29 30 30 30 30 29 27
7 8 12 16 18 17 16 15 18 18 14 9 15 18 23 22 24 24 25 19 17 17 18 16 13 12 10 13 14 15 14 12 11 13 17 22 23 25 26 27 28 27 26 24
10 9 7 8 15 16 18 15 16 19 20 21 20 19 21 26 19 22 23 20 22 22 21 18 17 16 13 13 15 14 14 12 9 11 13 15 17 21 23 23 24 23 22 21
8 10 11 18 14 13 11 21 23 23 23 20 19 19 19 20 17 18 19 21 22 21 20 20 17 15 15 14 12 14 13 12 11 13 14 15 13 16 18 19 20 20 22 25
21 18 10 12 15 15 16 17 19 22 23 22 23 21 20 20 21 21 17 15 16 19 20 20 15 11 11 11 13 14 15 13 13 15 17 17 17 19 17 17 17 20 26 27
23 18 9 9 14 17 21 21 17 17 21 17 19 24 26 24 26 23 17 18 19 18 17 15 17 11 11 12 14 15 16 15 15 16 17 18 18 19 21 25 23 20 24 27
12 15 11 11 11 13 17 21 12 14 18 25 22 24 23 23 17 16 17 14 14 14 16 14 13 13 15 16 14 15 16 17 20 16 15 17 19 21 22 22 23 25 24 26
4 7 15 16 14 12 19 21 17 11 16 17 18 18 17 17 17 21 22 20 20 21 19 21 20 21 20 17 16 15 17 20 18 18 18 18 21 24 24 25 25 27 27 28
7 5 8 10 11 14 10 11 10 14 21 21 21 19 20 20 20 20 24 20 21 21 20 24 23 23 22 17 14 16 17 18 19 18 19 20 22 23 24 28 26 28 32 31
6 9 5 6 9 19 20 13 16 18 19 19 21 19 19 22 25 26 27 25 22 21 19 24 24 26 24 19 17 17 18 16 17 19 19 20 21 25 27 28 28 26 29 27
6 8 7 15 15 18 20 22 12 9 14 17 21 23 23 24 26 28 27 25 22 21 19 24 23 19 20 21 20 19 17 17 18 20 21 20 20 23 28 27 30 28 27 26
15 18 18 23 23 22 17 7 13 18 20 19 21 23 24 24 28 27 26 28 25 23 25 28 21 19 23 24 24 22 19 17 18 21 21 17 19 25 22 23 26 29 33 39
16 20 14 16 21 17 18 15 19 22 19 18 22 23 26 23 27 28 26 26 26 25 30 25 28 27 27 28 28 25 20 17 17 18 18 14 17 20 22 24 17 16 21 32
Wind_Direction
196 209 215 216 218 234 249 247 228 228 228 250 226 245 230 241 225 238 236 229 218 220 221 217 213 216 215 216 212 211 209 208 203 204 205 209 213 215 219 221 221 219 216 214
200 222 223 227 235 234 240 241 233 245 256 243 250 247 244 240 245 236 234 231 231 227 225 225 226 225 221 221 218 217 216 211 207 208 211 213 216 219 221 223 223 221 219 215
222 222 224 225 229 231 234 235 239 241 203 229 267 260 247 243 250 249 238 241 247 231 231 231 229 231 228 227 226 225 221 217 213 211 211 213 216 222 223 223 223 222 219 218
241 243 233 226 226 223 235 233 248 258 249 249 237 269 253 238 228 236 239 237 237 245 245 247 246 237 230 235 234 232 226 222 218 214 212 207 208 211 219 220 224 223 222 220
218 231 236 238 234 227 243 241 254 235 242 255 251 253 263 254 246 237 235 244 243 240 244 246 246 244 245 239 237 233 226 224 220 213 214 212 216 221 225 224 225 221 222 221
260 228 270 251 239 240 254 230 228 237 237 239 236 239 264 244 244 236 238 248 254 245 246 247 250 251 249 244 239 229 221 222 218 214 214 215 217 222 222 221 218 217 216 218
244 248 240 228 256 223 221 213 218 223 223 238 228 227 244 229 279 282 273 248 242 251 254 254 250 246 237 238 232 227 217 217 214 213 214 216 220 221 223 222 217 213 212 213
235 242 226 225 228 230 212 220 226 223 229 239 224 236 238 244 257 260 262 242 254 272 226 262 256 250 252 239 225 221 218 222 216 215 217 219 223 224 224 223 220 217 215 215
236 234 251 219 223 218 228 219 228 243 266 275 261 233 236 253 258 256 251 257 258 262 250 266 250 240 247 234 213 217 220 225 222 219 219 220 221 220 221 220 216 217 216 215
265 274 267 254 239 224 233 232 226 234 240 246 238 236 232 208 219 238 252 256 257 261 259 273 267 251 238 254 262 242 233 236 233 227 222 221 221 222 222 218 214 213 212 210
295 259 252 222 224 233 210 236 245 251 222 243 250 239 236 250 262 272 267 336 353 307 272 305 315 288 254 280 274 269 269 256 249 238 228 223 222 222 219 215 212 211 207 205
2 286 250 255 254 263 288 282 246 235 234 237 245 248 260 273 273 257 260 283 283 270 299 310 308 296 294 293 297 283 280 265 254 244 233 226 222 217 214 213 210 206 204 202
131 345 318 234 231 247 251 255 222 281 265 255 254 252 242 259 268 267 268 268 278 279 296 296 296 311 307 314 319 312 298 281 261 242 230 224 219 213 210 210 206 202 199 198
205 250 237 270 292 292 292 279 252 256 269 268 261 260 260 262 270 273 272 277 277 276 287 294 301 323 328 326 328 318 308 299 271 245 231 220 214 213 211 206 202 198 196 193
232 248 242 259 272 269 270 258 265 254 244 240 276 283 281 284 291 298 289 295 290 281 284 283 282 293 297 308 318 323 315 304 271 243 238 228 215 211 209 203 199 195 191 191
266 264 268 272 266 265 266 259 259 257 265 267 261 264 267 271 269 273 266 274 277 277 277 281 289 286 293 302 303 313 314 309 270 244 236 227 213 206 201 200 196 186 180 177
276 283 286 274 281 276 255 241 254 253 251 256 261 261 261 271 273 268 271 264 262 261 268 278 281 284 281 285 302 302 309 308 273 246 226 216 203 204 198 192 188 179 172 171
249 254 266 276 284 262 261 263 257 251 252 248 248 260 278 277 271 266 276 292 281 268 261 263 269 282 282 303 307 306 297 290 269 256 237 220 213 204 200 190 189 175 179 179
231 246 253 253 264 277 280 268 261 267 264 260 253 245 258 261 269 271 268 272 274 283 285 283 286 278 275 303 311 307 301 286 267 257 249 237 219 217 203 198 195 183 181 176
220 222 234 244 257 264 261 265 285 288 264 262 269 278 274 272 274 281 286 301 307 293 287 275 270 277 276 290 297 301 297 291 269 262 252 244 230 216 210 199 186 180 182 175
196 206 222 234 245 259 276 286 290 266 267 292 308 316 307 291 284 290 288 292 292 291 276 270 273 288 283 283 279 285 286 283 293 280 263 244 229 218 208 196 181 173 172 174
270 268 244 237 244 255 11 357 299 337 331 318 328 324 321 307 300 294 289 291 295 289 277 269 270 273 277 269 273 277 278 291 296 286 269 247 229 215 200 185 174 172 167 163
256 240 293 282 287 309 320 316 294 316 306 306 309 305 304 302 297 298 295 295 289 283 282 274 265 271 272 259 263 266 279 291 289 285 274 257 235 205 196 179 170 164 162 157
296 293 288 302 274 280 314 303 316 325 318 317 306 304 302 299 294 290 289 289 288 284 277 272 265 268 264 256 256 265 281 285 284 280 276 260 225 200 187 182 176 172 171 166
284 290 289 280 280 291 294 285 319 315 313 311 308 308 303 300 289 286 286 285 282 280 282 277 270 266 261 259 265 268 278 279 283 285 276 250 210 192 184 185 187 184 187 179
259 269 272 276 289 302 293 310 309 302 307 313 305 308 307 303 294 292 284 281 281 278 275 270 268 256 256 258 260 266 271 272 271 274 271 215 191 187 178 167 153 183 188 187